BAW87M EGPH-EKCH

Flight info

Callsign BAW87M
Flight time 1h 24m
Altitude 37000
Route TLA Y96 HAVEN DCT OTBUN DCT ERLOT DCT GIVEM DCT SURAT DCT PETIL DCT TESPI
Aircraft B738/M-SDE2E3FGHIRWXY/LB1

Departure

Time 2026-05-04 16:31
Airport Edinburgh Airport (EGPH)

Arrival

Time 2026-05-04 17:55
Airport Copenhagen Kastrup Airport (EKCH)
Time Latitude Longitude Altitude Speed Heading
2026-05-04 16:07 55.94840 -3.35803 143 ft 0 kts 208°
2026-05-04 16:23 55.94870 -3.35774 142 ft 2 kts 208°
2026-05-04 16:24 55.94890 -3.35717 142 ft 1 kts 299°
2026-05-04 16:27 55.95005 -3.35836 142 ft 23 kts 23°
2026-05-04 16:28 55.95278 -3.35851 142 ft 17 kts 60°
2026-05-04 16:28 55.95466 -3.35419 142 ft 0 kts 345°
2026-05-04 16:29 55.95557 -3.35601 142 ft 16 kts 249°
2026-05-04 16:30 55.94529 -3.38631 650 ft 168 kts 239°
2026-05-04 16:31 55.93225 -3.42381 2358 ft 189 kts 242°
2026-05-04 16:31 55.90899 -3.49163 4338 ft 239 kts 241°
2026-05-04 16:32 55.89971 -3.57938 6669 ft 262 kts 294°
2026-05-04 16:33 55.92155 -3.62983 8485 ft 269 kts 327°
2026-05-04 16:33 55.95841 -3.64018 10227 ft 286 kts
2026-05-04 16:34 55.99195 -3.60206 11865 ft 308 kts 54°
2026-05-04 16:34 56.00208 -3.56806 12660 ft 315 kts 64°
2026-05-04 16:35 56.04863 -3.49743 14835 ft 304 kts 358°
2026-05-04 16:35 56.11070 -3.49493 16914 ft 327 kts 29°
2026-05-04 16:36 56.12685 -3.46553 17591 ft 342 kts 57°
2026-05-04 16:36 56.13337 -3.38103 18899 ft 357 kts 97°
2026-05-04 16:37 56.12661 -3.28994 19573 ft 384 kts 95°
2026-05-04 16:37 56.12455 -3.24112 19852 ft 399 kts 93°
2026-05-04 16:37 56.12242 -3.13899 20432 ft 428 kts 90°
2026-05-04 16:38 56.12153 -3.03107 21579 ft 439 kts 90°
2026-05-04 16:39 56.12062 -2.86510 23464 ft 450 kts 90°
2026-05-04 16:39 56.11990 -2.75267 24662 ft 457 kts 90°
2026-05-04 16:40 56.11904 -2.63839 25724 ft 465 kts 90°
2026-05-04 16:40 56.11805 -2.52147 26291 ft 484 kts 90°
2026-05-04 16:41 56.11688 -2.39904 27259 ft 492 kts 90°
2026-05-04 16:41 56.11487 -2.21708 29254 ft 489 kts 90°
2026-05-04 16:42 56.11261 -2.03568 31002 ft 486 kts 90°
2026-05-04 16:43 56.11098 -1.91539 32198 ft 481 kts 90°
2026-05-04 16:43 56.10925 -1.79696 33209 ft 479 kts 90°
2026-05-04 16:43 56.10833 -1.73697 33663 ft 479 kts 90°
2026-05-04 16:44 56.10444 -1.50113 35354 ft 475 kts 91°
2026-05-04 16:45 56.10232 -1.38370 36091 ft 472 kts 91°
2026-05-04 16:46 56.09897 -1.20825 36992 ft 472 kts 92°
2026-05-04 16:46 56.09660 -1.09092 36988 ft 469 kts 92°
2026-05-04 16:47 56.09158 -0.85884 36994 ft 468 kts 92°
2026-05-04 16:48 56.08609 -0.62651 36996 ft 468 kts 92°
2026-05-04 16:49 56.08021 -0.39531 36996 ft 468 kts 92°
2026-05-04 16:50 56.07385 -0.16307 37008 ft 468 kts 93°
2026-05-04 16:51 56.06882 0.01050 37007 ft 466 kts 92°
2026-05-04 16:52 56.06172 0.24230 37013 ft 474 kts 93°
2026-05-04 16:53 56.05597 0.42034 37003 ft 483 kts 93°
2026-05-04 16:54 56.04783 0.65931 37013 ft 481 kts 94°
2026-05-04 16:55 56.03479 1.01680 37012 ft 482 kts 94°
2026-05-04 16:56 56.02319 1.31364 37615 ft 477 kts 94°
2026-05-04 16:57 56.02081 1.37235 37861 ft 476 kts 94°
2026-05-04 16:57 56.01597 1.48972 38367 ft 472 kts 94°
2026-05-04 16:58 56.00860 1.66319 39018 ft 469 kts 95°
2026-05-04 16:58 56.00607 1.72130 39009 ft 472 kts 95°
2026-05-04 17:00 55.99020 2.07339 39028 ft 475 kts 95°
2026-05-04 17:01 55.97615 2.36746 39031 ft 477 kts 95°
2026-05-04 17:02 55.96445 2.60201 39021 ft 476 kts 95°
2026-05-04 17:03 55.95539 2.77744 39025 ft 475 kts 96°
2026-05-04 17:03 55.94605 2.95344 39019 ft 474 kts 96°
2026-05-04 17:04 55.93330 3.18628 39032 ft 475 kts 96°
2026-05-04 17:05 55.92003 3.42021 39028 ft 476 kts 96°
2026-05-04 17:06 55.91596 3.59626 39024 ft 476 kts 88°
2026-05-04 17:07 55.91936 3.75317 39036 ft 475 kts 87°
2026-05-04 17:07 55.92273 3.88983 39012 ft 476 kts 88°
2026-05-04 17:08 55.92635 4.06657 39009 ft 480 kts 88°
2026-05-04 17:09 55.92841 4.18554 39010 ft 483 kts 88°
2026-05-04 17:09 55.93030 4.30473 39004 ft 482 kts 88°
2026-05-04 17:10 55.93446 4.60316 39007 ft 481 kts 88°
2026-05-04 17:11 55.93592 4.72226 39014 ft 483 kts 89°
2026-05-04 17:12 55.93789 4.90106 39010 ft 483 kts 89°
2026-05-04 17:13 55.94146 5.19932 39007 ft 482 kts 88°
2026-05-04 17:14 55.94465 5.43738 39008 ft 482 kts 88°
2026-05-04 17:15 55.94664 5.61652 39006 ft 482 kts 88°
2026-05-04 17:16 55.94883 5.85551 39004 ft 484 kts 89°
2026-05-04 17:17 55.95055 6.09512 39005 ft 485 kts 89°
2026-05-04 17:18 55.95180 6.33518 39002 ft 485 kts 89°
2026-05-04 17:19 55.95258 6.57491 39012 ft 486 kts 89°
2026-05-04 17:20 55.95291 6.81540 39007 ft 486 kts 90°
2026-05-04 17:20 55.95284 6.99587 39007 ft 487 kts 90°
2026-05-04 17:21 55.95235 7.23619 38998 ft 487 kts 90°
2026-05-04 17:22 55.95193 7.35670 38996 ft 488 kts 90°
2026-05-04 17:23 55.95072 7.59861 38987 ft 490 kts 90°
2026-05-04 17:24 55.94696 7.77956 38985 ft 489 kts 94°
2026-05-04 17:25 55.93793 8.02035 38987 ft 487 kts 94°
2026-05-04 17:26 55.92913 8.26076 38983 ft 489 kts 94°
2026-05-04 17:26 55.92248 8.44204 38655 ft 490 kts 94°
2026-05-04 17:27 55.91793 8.56274 38030 ft 489 kts 94°
2026-05-04 17:27 55.91332 8.68217 37059 ft 485 kts 94°
2026-05-04 17:28 55.90858 8.80147 36283 ft 480 kts 94°
2026-05-04 17:29 55.90125 8.98092 35175 ft 485 kts 94°
2026-05-04 17:29 55.89367 9.15995 33728 ft 483 kts 94°
2026-05-04 17:30 55.88596 9.33604 32166 ft 470 kts 94°
2026-05-04 17:31 55.88075 9.45202 31122 ft 466 kts 94°
2026-05-04 17:31 55.87298 9.62026 29532 ft 453 kts 94°
2026-05-04 17:32 55.86773 9.73125 28284 ft 452 kts 95°
2026-05-04 17:33 55.85959 9.89901 26548 ft 453 kts 95°
2026-05-04 17:33 55.85684 9.95466 25969 ft 450 kts 95°
2026-05-04 17:34 55.84861 10.11847 24248 ft 440 kts 95°
2026-05-04 17:34 55.84585 10.17231 23678 ft 436 kts 95°
2026-05-04 17:35 55.83849 10.33155 21978 ft 429 kts 91°
2026-05-04 17:35 55.83914 10.43652 20860 ft 424 kts 87°
2026-05-04 17:35 55.84022 10.48876 20299 ft 421 kts 87°
2026-05-04 17:36 55.84129 10.54029 19742 ft 418 kts 87°
2026-05-04 17:36 55.84224 10.59176 19186 ft 416 kts 87°
2026-05-04 17:36 55.84302 10.64280 18631 ft 413 kts 88°
2026-05-04 17:36 55.84367 10.69380 18074 ft 411 kts 89°
2026-05-04 17:37 55.84421 10.74436 17522 ft 407 kts 89°
2026-05-04 17:37 55.84465 10.79428 16971 ft 404 kts 89°
2026-05-04 17:37 55.84501 10.84375 16418 ft 401 kts 89°
2026-05-04 17:37 55.84532 10.89278 15870 ft 397 kts 89°
2026-05-04 17:38 55.84559 10.94166 15314 ft 394 kts 89°
2026-05-04 17:38 55.84584 10.99025 14761 ft 391 kts 90°
2026-05-04 17:38 55.84607 11.03789 14212 ft 388 kts 90°
2026-05-04 17:38 55.84629 11.08574 13661 ft 385 kts 90°
2026-05-04 17:39 55.84665 11.17995 12623 ft 378 kts 89°
2026-05-04 17:39 55.84681 11.22627 12099 ft 375 kts 89°
2026-05-04 17:39 55.84695 11.27215 11579 ft 372 kts 89°
2026-05-04 17:40 55.84707 11.31776 11055 ft 369 kts 89°
2026-05-04 17:40 55.84717 11.36305 10528 ft 366 kts 89°
2026-05-04 17:40 55.84725 11.40813 9999 ft 363 kts 89°
2026-05-04 17:40 55.84732 11.45221 9479 ft 360 kts 89°
2026-05-04 17:41 55.84737 11.49645 9014 ft 355 kts 89°
2026-05-04 17:41 55.84741 11.53996 8942 ft 344 kts 89°
2026-05-04 17:41 55.84744 11.58289 8947 ft 349 kts 89°
2026-05-04 17:41 55.84745 11.62615 8944 ft 351 kts 89°
2026-05-04 17:42 55.84744 11.66939 8943 ft 351 kts 90°
2026-05-04 17:42 55.84742 11.71275 8945 ft 351 kts 90°
2026-05-04 17:42 55.84738 11.75599 8944 ft 351 kts 90°
2026-05-04 17:42 55.84732 11.79913 8721 ft 350 kts 90°
2026-05-04 17:43 55.84725 11.84220 8467 ft 346 kts 90°
2026-05-04 17:43 55.84717 11.88454 8217 ft 345 kts 90°
2026-05-04 17:43 55.84707 11.92702 7963 ft 343 kts 90°
2026-05-04 17:43 55.84696 11.96931 7713 ft 342 kts 90°
2026-05-04 17:44 55.84684 12.01131 7459 ft 340 kts 90°
2026-05-04 17:44 55.84670 12.05357 7206 ft 339 kts 90°
2026-05-04 17:44 55.84655 12.09512 6956 ft 338 kts 89°
2026-05-04 17:44 55.84638 12.13704 6707 ft 336 kts 89°
2026-05-04 17:45 55.84620 12.17749 6501 ft 325 kts 89°
2026-05-04 17:45 55.84602 12.21698 6296 ft 315 kts 89°
2026-05-04 17:45 55.84582 12.25513 6092 ft 305 kts 89°
2026-05-04 17:45 55.84562 12.29232 5889 ft 296 kts 89°
2026-05-04 17:46 55.84486 12.32806 5686 ft 289 kts 95°
2026-05-04 17:46 55.84202 12.36334 5486 ft 286 kts 99°
2026-05-04 17:46 55.83850 12.39789 5285 ft 286 kts 99°
2026-05-04 17:46 55.83482 12.43266 5081 ft 284 kts 99°
2026-05-04 17:47 55.83116 12.46703 4878 ft 284 kts 99°
2026-05-04 17:47 55.82746 12.50139 4673 ft 282 kts 99°
2026-05-04 17:47 55.82375 12.53556 4466 ft 282 kts 99°
2026-05-04 17:47 55.82001 12.56967 4268 ft 282 kts 99°
2026-05-04 17:48 55.81625 12.60365 4064 ft 280 kts 99°
2026-05-04 17:48 55.81245 12.63757 3985 ft 278 kts 99°
2026-05-04 17:48 55.80995 12.65987 3987 ft 280 kts 101°
2026-05-04 17:48 55.80490 12.70471 3974 ft 267 kts 100°
2026-05-04 17:49 55.80138 12.73559 3994 ft 250 kts 101°
2026-05-04 17:49 55.79804 12.76487 3982 ft 233 kts 101°
2026-05-04 17:49 55.79488 12.79268 3985 ft 227 kts 101°
2026-05-04 17:49 55.79176 12.82021 3975 ft 223 kts 101°
2026-05-04 17:50 55.78871 12.84709 3700 ft 222 kts 100°
2026-05-04 17:50 55.78365 12.87250 3430 ft 220 kts 125°
2026-05-04 17:50 55.77244 12.88942 3159 ft 207 kts 163°
2026-05-04 17:50 55.75873 12.89138 2967 ft 192 kts 203°
2026-05-04 17:51 55.74830 12.87901 2991 ft 182 kts 240°
2026-05-04 17:51 55.74242 12.85942 2980 ft 178 kts 250°
2026-05-04 17:51 55.73573 12.84066 2952 ft 183 kts 234°
2026-05-04 17:51 55.72642 12.82467 2726 ft 186 kts 227°
2026-05-04 17:52 55.71691 12.80985 2454 ft 181 kts 227°
2026-05-04 17:52 55.70748 12.79501 2202 ft 184 kts 226°
2026-05-04 17:52 55.69786 12.78000 1935 ft 184 kts 226°
2026-05-04 17:52 55.68817 12.76497 1689 ft 183 kts 226°
2026-05-04 17:53 55.67897 12.75069 1421 ft 172 kts 226°
2026-05-04 17:53 55.67020 12.73705 1204 ft 163 kts 226°
2026-05-04 17:53 55.66211 12.72450 1011 ft 150 kts 226°
2026-05-04 17:53 55.65445 12.71258 785 ft 141 kts 226°
2026-05-04 17:54 55.64708 12.70114 618 ft 141 kts 226°
2026-05-04 17:54 55.63959 12.68956 423 ft 144 kts 226°
2026-05-04 17:54 55.63211 12.67817 244 ft 140 kts 225°
2026-05-04 17:54 55.62500 12.66709 41 ft 134 kts 225°
2026-05-04 17:55 55.61915 12.65789 13 ft 79 kts 223°
2026-05-04 17:55 55.61620 12.65302 15 ft 41 kts 249°
2026-05-04 17:55 55.61649 12.64938 15 ft 15 kts 305°
2026-05-04 17:55 55.61743 12.64803 15 ft 20 kts 339°
2026-05-04 17:56 55.61870 12.64805 15 ft 12 kts 21°
2026-05-04 17:56 55.61961 12.64894 15 ft 17 kts 34°
2026-05-04 17:56 55.62077 12.65029 15 ft 18 kts 32°
2026-05-04 17:56 55.62105 12.65061 15 ft 7 kts 32°
2026-05-04 17:57 55.62130 12.65089 15 ft 0 kts 32°
2026-05-04 17:57 55.62131 12.65090 15 ft 0 kts 32°
2026-05-04 17:57 55.62134 12.65093 15 ft 0 kts 32°
2026-05-04 17:57 55.62135 12.65094 15 ft 0 kts 32°
2026-05-04 17:58 55.62136 12.65095 15 ft 1 kts 32°
2026-05-04 17:58 55.62174 12.65143 15 ft 7 kts 40°
2026-05-04 17:59 55.62215 12.65197 16 ft 6 kts 23°
2026-05-04 17:59 55.62272 12.65193 17 ft 10 kts 351°
2026-05-04 17:59 55.62486 12.65201 18 ft 18 kts 356°
2026-05-04 18:00 55.62602 12.65197 18 ft 14 kts
2026-05-04 18:00 55.62682 12.65152 18 ft 10 kts 300°
2026-05-04 18:00 55.62696 12.65091 20 ft 0 kts 290°